FW1310 Weather Reports


time (UTC)temp
F
wind
direction
speed
knots
gust
knots
rain 1hr
in
rain 24hr
in
rain mn
in
humidity
%
barometer
mb
20260506111503 74 279 0.0 0.9 0.00 0.00 0.00 90 994.9
20260506110504 74 294 0.0 0.9 0.00 0.00 0.00 90 994.9
20260506105504 74 314 0.9 1.7 0.00 0.00 0.00 90 995.0
20260506105003 74 301 0.0 0.9 0.00 0.00 0.00 89 995.0
20260506104504 74 300 0.0 2.6 0.00 0.00 0.00 89 995.0
20260506104004 74 322 0.9 2.6 0.00 0.00 0.00 89 994.9
20260506103504 74 314 0.9 2.6 0.00 0.00 0.00 89 995.0
20260506103004 74 268 0.9 2.6 0.00 0.00 0.00 89 995.1
20260506102504 74 285 0.0 0.9 0.00 0.00 0.00 89 994.8
20260506102004 74 266 1.7 2.6 0.00 0.00 0.00 89 994.8
20260506101504 74 355 0.9 1.7 0.00 0.00 0.00 89 994.7
20260506101004 74 285 0.0 2.6 0.00 0.00 0.00 89 994.5
20260506100504 74 278 0.0 1.7 0.00 0.00 0.00 89 994.5
20260506100005 74 300 0.0 2.6 0.00 0.00 0.00 89 994.4
20260506095504 74 331 1.7 4.3 0.00 0.00 0.00 89 994.4
20260506095004 74 309 0.0 1.7 0.00 0.00 0.00 89 994.5
20260506094504 74 0 0.9 1.7 0.00 0.00 0.00 89 994.5
20260506094004 74 310 0.0 1.7 0.00 0.00 0.00 89 994.5
20260506093504 74 294 0.9 1.7 0.00 0.00 0.00 88 994.4
20260506093004 74 249 0.0 2.6 0.00 0.00 0.00 88 994.2
20260506092004 74 278 0.0 1.7 0.00 0.00 0.00 88 994.0
20260506091004 74 271 0.9 6.1 0.00 0.00 0.00 88 994.1
20260506090504 74 237 0.9 1.7 0.00 0.00 0.00 88 993.9
20260506090004 74 252 0.0 2.6 0.00 0.00 0.00 88 993.9
20260506085504 74 324 1.7 5.2 0.00 0.00 0.00 88 993.9
20260506085004 74 233 0.9 2.6 0.00 0.00 0.00 88 993.9
20260506084504 74 349 1.7 5.2 0.00 0.00 0.00 88 993.7
20260506083004 74 337 2.6 7.0 0.00 0.00 0.00 88 993.9
20260506082504 74 262 1.7 6.1 0.00 0.00 0.00 88 993.9
20260506082004 74 286 1.7 5.2 0.00 0.00 0.00 88 993.8
20260506080504 74 290 1.7 4.3 0.00 0.00 0.00 88 993.8
20260506073504 75 248 1.7 5.2 0.00 0.00 0.00 88 993.9
20260506073004 74 250 2.6 8.7 0.00 0.00 0.00 88 994.1
20260506072504 74 229 1.7 5.2 0.00 0.00 0.00 88 993.9
20260506072003 75 283 2.6 5.2 0.00 0.00 0.00 88 994.0
20260506071504 74 270 0.9 5.2 0.00 0.00 0.00 88 994.2
20260506071004 74 342 3.5 7.8 0.00 0.00 0.00 88 994.2
20260506070504 74 323 1.7 6.1 0.00 0.00 0.00 88 994.0
20260506062505 75 348 2.6 6.1 0.00 0.00 0.00 88 994.0
20260506062003 75 242 1.7 6.1 0.00 0.00 0.00 88 993.9
20260506061504 75 274 3.5 6.1 0.00 0.00 0.00 88 994.0
20260506061004 75 288 2.6 7.0 0.00 0.00 0.00 88 993.9
20260506060504 75 305 2.6 5.2 0.00 0.00 0.00 88 993.7
20260506045004 75 279 2.6 7.0 0.00 0.00 0.00 88 994.0
20260506044504 75 257 2.6 6.1 0.00 0.00 0.00 88 994.0
20260506043505 75 272 1.7 4.3 0.00 0.00 0.00 88 994.1
20260506043004 75 250 1.7 4.3 0.00 0.00 0.00 88 994.0
20260506042504 75 262 1.7 1.7 0.00 0.00 0.00 87 994.0
20260506042004 76 239 0.9 4.3 0.00 0.00 0.00 87 993.8
20260506041504 76 266 1.7 4.3 0.00 0.00 0.00 87 993.8
20260506041004 76 245 1.7 4.3 0.00 0.00 0.00 87 993.8
20260506035505 76 211 1.7 4.3 0.00 0.00 0.00 86 993.5
20260506034504 76 259 1.7 4.3 0.00 0.00 0.00 85 993.7
20260506034004 76 252 2.6 4.3 0.00 0.00 0.00 85 993.6
20260506033504 76 264 1.7 2.6 0.00 0.00 0.00 85 993.4
20260506033005 76 206 2.6 7.0 0.00 0.00 0.00 84 993.4
20260506032504 77 271 3.5 7.0 0.00 0.00 0.00 84 993.3
20260506032005 77 234 0.9 4.3 0.00 0.00 0.00 84 993.4
20260506031005 77 267 2.6 4.3 0.00 0.00 0.00 83 993.3
20260506030504 77 258 0.9 5.2 0.00 0.00 0.00 83 993.1
20260506030004 77 261 1.7 5.2 0.00 0.00 0.00 82 993.1
20260506025504 77 303 2.6 6.1 0.00 0.00 0.00 82 993.0
20260506025004 78 270 0.9 2.6 0.00 0.00 0.00 82 993.1
20260506024004 78 172 2.6 4.3 0.00 0.00 0.00 81 992.8
20260506023505 78 262 2.6 4.3 0.00 0.00 0.00 81 992.8
20260506023004 78 246 1.7 4.3 0.00 0.00 0.00 81 992.8
20260506022504 78 268 2.6 4.3 0.00 0.00 0.00 80 992.7
20260506022004 78 253 2.6 5.2 0.00 0.00 0.00 80 992.5
20260506021504 78 243 1.7 4.3 0.00 0.00 0.00 80 992.5
20260506020504 79 232 2.6 6.1 0.00 0.00 0.00 79 992.4
20260506015504 79 237 2.6 4.3 0.00 0.00 0.00 78 992.3
20260506015004 79 243 1.7 2.6 0.00 0.00 0.00 77 992.3
20260506014504 79 281 1.7 5.2 0.00 0.00 0.00 77 992.0
20260506014004 79 253 2.6 6.1 0.00 0.00 0.00 77 992.0
20260506013504 79 239 1.7 7.0 0.00 0.00 0.00 77 992.0
20260506013004 79 240 4.3 7.0 0.00 0.00 0.00 76 992.0
20260506012504 79 263 1.7 2.6 0.00 0.00 0.00 76 991.9
20260506011504 80 270 0.9 0.9 0.00 0.00 0.00 75 991.8
20260506011004 80 313 0.0 0.0 0.00 0.00 0.00 74 992.0
20260506005004 81 257 0.9 1.7 0.00 0.00 0.00 72 991.9
20260506004504 82 276 0.9 4.3 0.00 0.00 0.00 72 991.8
20260506004004 82 292 0.9 2.6 0.00 0.00 0.00 71 992.0
20260506003504 82 240 0.9 4.3 0.00 0.00 0.00 71 992.1
20260506003004 82 354 0.0 4.3 0.00 0.00 0.00 71 991.9
20260506002504 82 281 1.7 4.3 0.00 0.00 0.00 70 992.0
20260506002004 82 277 1.7 4.3 0.00 0.00 0.00 70 992.1
20260506001504 82 218 1.7 4.3 0.00 0.00 0.00 70 991.9
20260506001004 82 273 1.7 6.1 0.00 0.00 0.00 70 991.8
20260506000504 82 230 0.9 6.1 0.00 0.00 0.00 70 992.0
20260505235504 82 8 0.9 7.0 0.00 0.00 0.00 70 992.0
20260505235004 82 250 1.7 2.6 0.00 0.00 0.00 70 992.0
20260505234504 83 277 2.6 7.0 0.00 0.00 0.00 70 992.0
20260505234004 83 340 1.7 4.3 0.00 0.00 0.00 69 991.9
20260505232004 83 250 1.7 7.0 0.00 0.00 0.00 68 991.8
20260505231504 84 248 0.9 7.8 0.00 0.00 0.00 67 991.6
20260505231005 84 237 0.9 5.2 0.00 0.00 0.00 67 991.5
20260505230504 84 88 1.7 5.2 0.00 0.00 0.00 67 991.5
20260505230004 84 273 0.9 2.6 0.00 0.00 0.00 66 991.4
20260505225504 84 301 2.6 5.2 0.00 0.00 0.00 66 991.4
20260505225004 84 294 1.7 7.8 0.00 0.00 0.00 66 991.4
20260505224504 84 306 1.7 7.8 0.00 0.00 0.00 66 991.3
20260505224004 85 301 1.7 7.8 0.00 0.00 0.00 65 991.3
20260505223504 85 299 0.9 4.3 0.00 0.00 0.00 65 991.4
20260505223004 85 276 1.7 4.3 0.00 0.00 0.00 65 991.3
20260505222504 85 259 1.7 6.1 0.00 0.00 0.00 65 991.4
20260505221504 85 267 0.9 2.6 0.00 0.00 0.00 67 991.2
20260505221004 85 306 1.7 6.1 0.00 0.00 0.00 67 991.3
20260505220504 85 221 2.6 7.0 0.00 0.00 0.00 65 991.4
20260505220004 85 249 3.5 6.1 0.00 0.00 0.00 65 991.3
20260505215504 85 272 1.7 7.8 0.00 0.00 0.00 66 991.6
20260505214504 86 308 2.6 7.8 0.00 0.00 0.00 64 991.7
20260505213004 86 251 2.6 7.0 0.00 0.00 0.00 64 991.6
20260505212504 87 292 2.6 6.1 0.00 0.00 0.00 64 991.7
20260505212004 87 302 2.6 7.0 0.00 0.00 0.00 65 991.9
20260505211004 86 252 0.9 5.2 0.00 0.00 0.00 65 992.0
20260505210504 87 241 2.6 5.2 0.00 0.00 0.00 63 992.1
20260505205504 86 284 4.3 7.8 0.00 0.00 0.00 64 992.2
20260505205004 85 228 0.9 2.6 0.00 0.00 0.00 65 992.1
20260505204504 86 326 0.9 6.1 0.00 0.00 0.00 64 992.4
20260505204005 86 126 0.9 6.1 0.00 0.00 0.00 63 992.2
20260505203005 85 247 1.7 4.3 0.00 0.00 0.00 64 992.2
20260505202504 85 304 4.3 7.8 0.00 0.00 0.00 64 992.4
20260505202004 85 234 3.5 8.7 0.00 0.00 0.00 65 992.5
20260505201504 85 280 2.6 7.8 0.00 0.00 0.00 64 992.5
20260505201004 85 209 1.7 8.7 0.00 0.00 0.00 64 992.7
20260505200504 85 301 2.6 6.1 0.00 0.00 0.00 64 992.7
20260505195504 85 200 1.7 6.1 0.00 0.00 0.00 64 992.7
20260505195004 85 299 2.6 5.2 0.00 0.00 0.00 64 992.7
20260505194504 85 280 1.7 5.2 0.00 0.00 0.00 65 992.9
20260505194004 84 321 4.3 7.8 0.00 0.00 0.00 66 992.9
20260505193504 84 34 0.9 8.7 0.00 0.00 0.00 67 993.1
20260505193004 84 288 2.6 7.0 0.00 0.00 0.00 66 992.9
20260505192504 83 288 4.3 7.0 0.00 0.00 0.00 67 993.2
20260505192004 83 332 2.6 6.1 0.00 0.00 0.00 68 993.2
20260505191504 83 274 1.7 8.7 0.00 0.00 0.00 68 993.3
20260505191004 83 189 2.6 8.7 0.00 0.00 0.00 68 993.2
20260505190504 83 268 2.6 8.7 0.00 0.00 0.00 68 993.2
20260505190004 83 303 3.5 7.8 0.00 0.00 0.00 68 993.2
20260505185504 83 8 1.7 7.8 0.00 0.00 0.00 69 993.3
20260505185004 83 337 4.3 7.0 0.00 0.00 0.00 68 993.4
20260505184004 82 314 2.6 6.1 0.00 0.00 0.00 71 993.5
20260505183504 81 210 2.6 5.2 0.00 0.00 0.00 71 993.6
20260505182505 82 317 2.6 7.0 0.00 0.00 0.00 70 993.8
20260505182004 81 269 3.5 7.8 0.00 0.00 0.00 72 993.8
20260505181504 80 310 1.7 7.8 0.00 0.00 0.00 72 993.9
20260505181004 80 353 3.5 7.8 0.00 0.00 0.00 72 994.0
20260505180504 81 306 2.6 6.1 0.00 0.00 0.00 71 994.1
20260505180004 79 286 2.6 7.0 0.00 0.00 0.00 74 994.2
20260505175504 78 350 4.3 7.8 0.00 0.00 0.00 75 994.2
20260505175004 79 317 2.6 7.8 0.00 0.00 0.00 75 994.3
20260505174504 78 311 2.6 7.8 0.00 0.00 0.00 76 994.4
20260505174004 77 339 1.7 7.8 0.00 0.00 0.00 76 994.5
20260505173004 77 304 2.6 6.1 0.00 0.00 0.00 78 994.3
20260505172505 76 354 1.7 6.1 0.00 0.00 0.00 79 994.5
20260505172004 76 7 0.9 7.8 0.00 0.00 0.00 79 994.5
20260505171504 76 321 1.7 2.6 0.00 0.00 0.00 80 994.6
20260505171004 76 11 0.9 8.7 0.00 0.00 0.00 80 994.6
20260505170504 75 337 3.5 8.7 0.00 0.00 0.00 81 994.5
20260505170004 75 292 2.6 6.1 0.00 0.00 0.00 81 994.6
20260505165504 75 93 0.9 6.1 0.00 0.00 0.00 81 994.5
20260505165004 75 194 0.9 6.1 0.00 0.00 0.00 81 994.6
20260505164504 75 275 2.6 7.0 0.00 0.00 0.00 81 994.5
20260505164004 74 271 2.6 10.4 0.00 0.00 0.00 82 994.5
20260505163504 75 317 3.5 10.4 0.00 0.00 0.00 81 994.5
20260505163004 74 38 1.7 5.2 0.00 0.00 0.00 82 994.5
20260505162505 74 356 1.7 5.2 0.00 0.00 0.00 83 994.7
20260505162004 73 345 1.7 6.1 0.00 0.00 0.00 84 994.8
20260505160504 73 38 1.7 7.0 0.00 0.00 0.00 85 994.5
20260505153005 73 311 2.6 7.8 0.00 0.00 0.00 85 994.5
20260505152504 72 336 2.6 7.8 0.00 0.00 0.00 85 994.6
20260505152004 72 21 1.7 7.8 0.00 0.00 0.00 86 994.5
20260505151504 72 249 1.7 4.3 0.00 0.00 0.00 86 994.6
20260505151004 72 98 1.7 6.1 0.00 0.00 0.00 86 994.5
20260505150504 72 317 0.9 7.8 0.00 0.00 0.00 87 994.6
20260505140504 71 294 1.7 6.1 0.00 0.00 0.00 87 993.9
20260505125004 70 307 3.5 7.0 0.00 0.00 0.00 88 993.3
20260505124504 70 268 2.6 5.2 0.00 0.00 0.00 88 993.4
20260505124004 70 31 4.3 7.0 0.00 0.00 0.00 88 993.3
20260505123504 70 307 1.7 7.8 0.00 0.00 0.00 88 993.2
20260505123004 70 291 2.6 6.1 0.00 0.00 0.00 88 993.1
20260505122004 70 5 4.3 7.0 0.00 0.00 0.00 89 992.9
20260505121504 69 293 3.5 7.0 0.00 0.00 0.00 89 992.7
20260505121004 69 348 3.5 10.4 0.00 0.00 0.00 89 992.7
20260505120504 69 278 2.6 7.8 0.00 0.00 0.00 89 992.5
20260505120005 69 309 2.6 10.4 0.00 0.00 0.00 89 992.5
20260505115504 69 345 0.9 2.6 0.00 0.00 0.00 89 992.4
20260505115004 69 208 1.7 5.2 0.00 0.00 0.00 89 992.3
20260505114004 69 290 0.9 6.1 0.00 0.00 0.00 89 992.3
20260505112504 70 351 2.6 5.2 0.00 0.00 0.00 89 992.5
20260505112004 70 288 3.5 8.7 0.00 0.00 0.00 88 992.4